[[{"header":{"parameterUnit":"m.s-1","parameterCategory":2,"la1":30.2991,"la2":30.254,"lo1":-89.0895,"lo2":-89.0444,"dy":0.0017,"dx":0.0017,"nx":28,"ny":28,"refTime":"2025-06-21T09:00:00:Z","depth":"0","parameterNumber":2,"parameterNumberName":"U-component_of_CURRENTS"},"data":[0,0,0,0,0,0,0,0,0,0,0,0,0,0,0,0,0,0,0,0,0,0,0,0,0,0,0,0,0,0,0,0,0,0,0,0,0,0,0,0,0,0,0,0,0,0,0,0,0,0,0,0,0,0,0,0,0,0,0.1409,0.1409,0,0.133,0.1329,0.1328,0.1251,0.125,0.1249,0.1248,0.1127,0.1124,0.1122,0,0,0,0,0,0,0,0,0,0,0,0,0,0.1453,0.1453,0.141,0.1409,0.1408,0.1331,0.1329,0.1328,0.1251,0.125,0.1249,0.1248,0.1127,0.1125,0.1122,0,0,0,0,0,0,0,0,0,0,0,0,0,0.1409,0.1453,0.141,0.1361,0.1356,0.1331,0.1329,0.1328,0.1251,0.125,0.1248,0.1247,0.1128,0.1125,0.1121,0.1127,0,0,0.111,0.1109,0,0,0,0,0,0,0,0,0.1412,0.1407,0.1369,0.1364,0.1358,0.13,0.13,0.1259,0.1251,0.129,0.1248,0.1246,0.1182,0.1174,0.1162,0.1121,0.1116,0.111,0.1108,0.1106,0.1105,0,0,0,0,0,0,0,0.1415,0.141,0.1377,0.1368,0.1362,0.1329,0.1321,0.1292,0.1243,0.1286,0.1281,0.1274,0.1179,0.1165,0.1158,0.1114,0.111,0.1107,0.1105,0.1104,0.1116,0.1118,0,0,0,0,0,0,0.1431,0.1414,0.138,0.1375,0.1383,0.1329,0.1321,0.1319,0.1244,0.1232,0.1275,0.1271,0.1172,0.1162,0.1153,0.1217,0.1107,0.1103,0.1101,0.1113,0.1116,0.1119,0,0,0,0,0,0,0.1432,0.1429,0.1383,0.1393,0.1385,0.133,0.1329,0.1318,0.1306,0.1237,0.1223,0.1273,0.1171,0.1158,0.1153,0.1209,0.1102,0.1098,0.111,0.1114,0.1118,0.1305,0,0,0,0,0,0,0.1434,0.143,0.144,0.1394,0.1385,0.1387,0.133,0.1318,0.1304,0.1297,0.1231,0.1218,0.1169,0.1159,0.115,0.1202,0.1096,0.1107,0.1112,0.1116,0.1295,0.1314,0.133,0,0,0,0,0,0.1436,0.1456,0.1441,0.1437,0.1398,0.1389,0.1382,0.1337,0.1306,0.1317,0.1279,0.122,0.1182,0.1159,0.1147,0.12,0.1105,0.1111,0.1116,0.1287,0.1311,0.133,0,0,0,0,0,0,0.1476,0.1449,0.1431,0.1441,0.1426,0.1377,0.1384,0.1349,0.1327,0.1323,0.1249,0.1235,0.1253,0.12,0.1176,0.1217,0.1135,0.1138,0.1269,0.129,0.1307,0.1337,0.1093,0,0,0,0,0,0.1493,0.1504,0.1471,0.1482,0.1481,0.1435,0.1426,0.14,0.137,0.1358,0.1314,0.1277,0.1268,0.1257,0.1231,0.1252,0.1267,0.1278,0.1296,0.1311,0.1328,0.1406,0.1433,0.1137,0.1137,0.1137,0,0,0.1507,0.1499,0.15,0.1492,0.1476,0.1489,0.1427,0.143,0.1444,0.135,0.1363,0.1335,0.1286,0.1316,0.1319,0.1278,0.1414,0.1318,0.1332,0.134,0.1415,0.1444,0.147,0.1141,0.114,0.1139,0,0,0.1548,0.1543,0.1565,0.1564,0.1557,0.1539,0.1546,0.1514,0.1508,0.1519,0.1469,0.1484,0.1439,0.1441,0.1429,0.1527,0.1504,0.1511,0.1626,0.1703,0.1729,0.1751,0.1863,0.1894,0.1521,0.1521,0.1522,0,0.1566,0.1589,0.1571,0.1597,0.1607,0.1568,0.1598,0.1595,0.1567,0.1587,0.1545,0.1552,0.1508,0.1572,0.1607,0.1571,0.1619,0.1552,0.173,0.1752,0.1772,0.188,0.1912,0.1531,0.153,0.1529,0.1528,0,0.1619,0.1642,0.1663,0.1685,0.1697,0.1722,0.1718,0.174,0.1727,0.1722,0.1779,0.1746,0.1752,0.175,0.1704,0.1828,0.1822,0.1747,0.1685,0.1814,0.1919,0.1949,0.1545,0.1541,0.1539,0.1536,0,0,0.1644,0.1689,0.1696,0.1721,0.1749,0.176,0.1821,0.1862,0.1909,0.1911,0.1984,0.1991,0.1982,0.197,0.1936,0.2001,0.2196,0.1946,0.1946,0.2074,0.2416,0.2556,0.2601,0.2158,0.2163,0.2167,0.2453,0,0.1691,0.1752,0.1769,0.1834,0.1865,0.188,0.1935,0.1974,0.2005,0.2069,0.2087,0.2128,0.2063,0.2084,0.2151,0.2169,0.2274,0.2128,0.2255,0.226,0.2382,0.264,0.2775,0.3053,0.2482,0.2487,0.249,0,0.1736,0.1773,0.1839,0.1911,0.1928,0.1963,0.2058,0.2102,0.2195,0.2225,0.2299,0.23,0.2412,0.2317,0.2487,0.2401,0.244,0.2457,0.2466,0.2549,0.2456,0.2818,0.3128,0.3038,0.2535,0.2532,0.2528,0,0.1751,0.1825,0.188,0.1901,0.1972,0.2018,0.206,0.2148,0.2217,0.233,0.2405,0.2509,0.2577,0.2648,0.2706,0.261,0.2902,0.2759,0.2939,0.2948,0.3065,0.3078,0.3316,0.291,0.2909,0.2909,0.2908,0,0.179,0.1833,0.1886,0.1912,0.1991,0.2034,0.2136,0.2195,0.2317,0.2416,0.2482,0.2601,0.2662,0.2816,0.2829,0.3044,0.3019,0.3051,0.3064,0.3139,0.3155,0.3073,0.2941,0.2919,0.2917,0.2915,0.2913,0,0.1791,0.1829,0.189,0.1966,0.1995,0.2043,0.2166,0.224,0.2358,0.25,0.255,0.2733,0.2955,0.3061,0.3213,0.3241,0.334,0.3442,0.356,0.3584,0.3643,0.3515,0.3539,0.3427,0.3716,0.3722,0.3726,0,0.1793,0.1824,0.1908,0.1935,0.1966,0.2047,0.2106,0.2238,0.2321,0.2574,0.2646,0.2929,0.312,0.3488,0.3646,0.3848,0.3581,0.4034,0.3865,0.3774,0.3638,0.3306,0.3179,0.4107,0.4115,0.4121,0.4126,0,0.1786,0.1814,0.1854,0.1912,0.1967,0.2049,0.2141,0.2235,0.2395,0.256,0.2801,0.2996,0.3431,0.3747,0.4062,0.4175,0.3908,0.4166,0.4044,0.3996,0.3678,0.3534,0.378,0.418,0.4175,0.4171,0.4168,0.4166,0.1762,0.1782,0.1823,0.1876,0.1937,0.2017,0.2078,0.2217,0.2393,0.2629,0.2841,0.3157,0.3683,0.419,0.4308,0.4622,0.4269,0.4556,0.4426,0.4108,0.3956,0.4363,0.4769,0.4767,0.4765,0.4763,0.4762,0,0.1708,0.1734,0.1779,0.1837,0.1871,0.1931,0.2067,0.2139,0.2323,0.264,0.2878,0.3469,0.3961,0.4373,0.4893,0.4868,0.4589,0.4766,0.4327,0.4193,0.4622,0.46,0.5023,0.5023,0.5023,0.5023,0.5023,0.5023,0.1675,0.1686,0.1713,0.1741,0.1781,0.1828,0.1893,0.2044,0.2272,0.2673,0.3021,0.3317,0.3942,0.4661,0.4973,0.4937,0.4472,0.4424,0.4124,0.4464,0.4429,0.4396,0.4349,0.4712,0.4712,0.3645,0.3637,0.3631]},{"header":{"parameterUnit":"m.s-1","parameterCategory":2,"la1":30.2991,"la2":30.254,"lo1":-89.0895,"lo2":-89.0444,"dy":0.0017,"dx":0.0017,"nx":28,"ny":28,"refTime":"2025-06-21T09:00:00:Z","depth":"0","parameterNumber":3,"parameterNumberName":"V-component_of_CURRENTS"},"data":[0,0,0,0,0,0,0,0,0,0,0,0,0,0,0,0,0,0,0,0,0,0,0,0,0,0,0,0,0,0,0,0,0,0,0,0,0,0,0,0,0,0,0,0,0,0,0,0,0,0,0,0,0,0,0,0,0,0,-0.0122,-0.0123,0,-0.0216,-0.0217,-0.0218,-0.031,-0.0311,-0.0312,-0.0313,-0.0478,-0.0481,-0.0485,0,0,0,0,0,0,0,0,0,0,0,0,0,-0.006,-0.0061,-0.0122,-0.0123,-0.0124,-0.0215,-0.0217,-0.0218,-0.031,-0.0311,-0.0312,-0.0313,-0.0477,-0.0481,-0.0485,0,0,0,0,0,0,0,0,0,0,0,0,0,-0.0116,-0.0061,-0.0122,-0.0179,-0.0185,-0.0215,-0.0217,-0.0219,-0.031,-0.0311,-0.0312,-0.0314,-0.0475,-0.048,-0.0485,-0.0489,0,0,-0.0501,-0.0504,0,0,0,0,0,0,0,0,-0.0113,-0.0118,-0.0169,-0.0175,-0.0181,-0.025,-0.0255,-0.0312,-0.0309,-0.0265,-0.0313,-0.0315,-0.0406,-0.0417,-0.0434,-0.0496,-0.0504,-0.0502,-0.0505,-0.0507,-0.0509,0,0,0,0,0,0,0,-0.0109,-0.0115,-0.0162,-0.017,-0.0177,-0.0212,-0.0222,-0.0267,-0.0329,-0.0269,-0.0275,-0.0281,-0.041,-0.0428,-0.0438,-0.0506,-0.0502,-0.0506,-0.051,-0.0512,-0.0614,-0.0613,0,0,0,0,0,0,-0.0088,-0.0111,-0.0159,-0.0164,-0.0147,-0.0212,-0.0222,-0.0229,-0.0327,-0.0343,-0.0279,-0.0285,-0.0419,-0.0432,-0.0445,-0.0462,-0.0507,-0.0512,-0.0515,-0.0614,-0.0613,-0.0613,0,0,0,0,0,0,-0.0087,-0.0092,-0.0155,-0.0138,-0.0148,-0.0211,-0.0218,-0.023,-0.0252,-0.0334,-0.0352,-0.0289,-0.042,-0.0437,-0.0483,-0.0469,-0.0515,-0.0519,-0.0614,-0.0614,-0.0613,-0.0492,0,0,0,0,0,0,-0.0084,-0.009,-0.0086,-0.0136,-0.0148,-0.0165,-0.0216,-0.0231,-0.0252,-0.026,-0.0347,-0.0364,-0.0423,-0.0475,-0.0488,-0.0477,-0.0523,-0.0615,-0.0614,-0.0613,-0.0497,-0.0488,-0.048,0,0,0,0,0,-0.0082,-0.0067,-0.0086,-0.0091,-0.0141,-0.0164,-0.0173,-0.0225,-0.025,-0.0252,-0.0313,-0.0362,-0.048,-0.0478,-0.0494,-0.0484,-0.0615,-0.0614,-0.0613,-0.0501,-0.0489,-0.048,0,0,0,0,0,0,-0.0032,-0.0076,-0.0098,-0.0096,-0.0124,-0.0179,-0.0181,-0.0214,-0.0262,-0.0272,-0.0354,-0.0374,-0.041,-0.0463,-0.0459,-0.0513,-0.0556,-0.0558,-0.0465,-0.0455,-0.0447,-0.0413,-0.0528,0,0,0,0,0,-0.0018,-0.0022,-0.0066,-0.0061,-0.0073,-0.0124,-0.0139,-0.0172,-0.0219,-0.0242,-0.0299,-0.0364,-0.0416,-0.0447,-0.05,-0.0525,-0.0575,-0.0531,-0.0523,-0.0515,-0.0499,-0.0567,-0.0563,-0.061,-0.061,-0.061,0,0,0.0006,-0.0019,-0.002,-0.0051,-0.0079,-0.0081,-0.0138,-0.0151,-0.0155,-0.0251,-0.0272,-0.0334,-0.0416,-0.0447,-0.0468,-0.049,-0.0526,-0.0514,-0.0506,-0.0494,-0.0566,-0.0561,-0.0557,-0.0609,-0.0609,-0.0609,0,0,0.0055,0.0028,0.0041,0.0021,-0.0011,-0.0042,-0.004,-0.0088,-0.0113,-0.0138,-0.021,-0.0256,-0.0334,-0.0386,-0.0424,-0.0399,-0.0477,-0.0423,-0.0353,-0.042,-0.0416,-0.0413,-0.0458,-0.046,-0.042,-0.042,-0.042,0,0.0086,0.0091,0.0044,0.0052,0.0047,-0.0017,0.0002,-0.003,-0.0084,-0.0095,-0.013,-0.0233,-0.0301,-0.0342,-0.0336,-0.0377,-0.0425,-0.0382,-0.0406,-0.0405,-0.0405,-0.0451,-0.0455,-0.0414,-0.0415,-0.0415,-0.0416,0,0.0139,0.0144,0.0153,0.0138,0.013,0.0135,0.0091,0.0078,0.0042,0.0007,-0.0033,-0.0123,-0.0184,-0.0215,-0.0269,-0.0297,-0.0334,-0.0384,-0.0426,-0.0392,-0.0444,-0.045,-0.0405,-0.0408,-0.0409,-0.0411,0,0,0.02,0.0193,0.0195,0.0209,0.0176,0.0179,0.0178,0.0161,0.0168,0.0105,0.0107,0.0014,-0.0036,-0.0082,-0.016,-0.0215,-0.0251,-0.0288,-0.0295,-0.0318,-0.0385,-0.0376,-0.0383,-0.0312,-0.0313,-0.0314,-0.0417,0,0.0254,0.0295,0.0274,0.0318,0.0335,0.029,0.0299,0.0275,0.024,0.0224,0.0132,0.0098,0.0013,-0.0014,-0.0081,-0.0207,-0.0265,-0.0217,-0.0426,-0.0431,-0.0417,-0.0389,-0.0325,-0.0409,-0.0424,-0.0426,-0.0426,0,0.0308,0.0328,0.0381,0.0409,0.0414,0.0428,0.0435,0.0435,0.039,0.0362,0.0308,0.0236,0.0158,0.0074,-0.0111,-0.008,-0.0216,-0.0319,-0.0327,-0.0363,-0.0434,-0.0451,-0.0421,-0.059,-0.0437,-0.0436,-0.0436,0,0.0367,0.0405,0.0453,0.0459,0.0474,0.0493,0.0498,0.0475,0.0491,0.0446,0.0452,0.0339,0.0287,0.0113,-0.0082,-0.0107,-0.0286,-0.0358,-0.0477,-0.0478,-0.0484,-0.0484,-0.0629,-0.0495,-0.0495,-0.0494,-0.0494,0,0.0425,0.0463,0.0484,0.0508,0.0572,0.0559,0.0615,0.0599,0.0597,0.0622,0.0524,0.0522,0.0291,0.0167,-0.0035,-0.025,-0.0257,-0.0448,-0.0501,-0.0439,-0.0434,-0.0631,-0.0785,-0.0498,-0.0497,-0.0497,-0.0496,0,0.0472,0.0484,0.0542,0.0579,0.0598,0.0639,0.0693,0.0728,0.0716,0.0746,0.074,0.0655,0.0501,0.028,0.0006,-0.0177,-0.0503,-0.0478,-0.0369,-0.0407,-0.0674,-0.0824,-0.1045,-0.1158,-0.0627,-0.0627,-0.0628,0,0.0497,0.0532,0.0595,0.0636,0.0653,0.0714,0.0756,0.0773,0.0815,0.0827,0.0848,0.0746,0.0691,0.0338,0.0013,-0.0304,-0.052,-0.0476,-0.052,-0.0661,-0.087,-0.0946,-0.1032,-0.0485,-0.0484,-0.0483,-0.0483,0,0.0549,0.0567,0.0615,0.0697,0.0753,0.0831,0.0894,0.0953,0.0971,0.1013,0.1043,0.1019,0.0717,0.048,0.0076,-0.0184,-0.0596,-0.0473,-0.0661,-0.0795,-0.085,-0.099,-0.0438,-0.0476,-0.0477,-0.0477,-0.0478,-0.0478,0.0581,0.0628,0.069,0.0769,0.0841,0.094,0.1017,0.1093,0.1188,0.1279,0.1225,0.1275,0.0944,0.0423,0.0036,-0.0523,-0.0609,-0.0686,-0.0862,-0.0927,-0.1018,-0.0429,-0.0503,-0.0504,-0.0505,-0.0505,-0.0506,0,0.0623,0.068,0.0761,0.0863,0.0955,0.098,0.1105,0.1197,0.1326,0.1449,0.1505,0.1498,0.1038,0.0526,-0.0198,-0.0731,-0.0973,-0.1048,-0.1152,-0.1232,-0.0727,-0.0696,-0.0763,-0.0763,-0.0763,-0.0763,-0.0762,-0.0762,0.0652,0.0731,0.0777,0.0939,0.1018,0.1148,0.1228,0.1367,0.1505,0.174,0.1896,0.1979,0.1714,0.033,-0.067,-0.1017,-0.1457,-0.1579,-0.181,-0.1462,-0.144,-0.142,-0.1421,-0.1639,-0.1641,-0.2178,-0.2184,-0.2189]}],[{"header":{"parameterUnit":"m.s-1","parameterCategory":2,"la1":30.2991,"la2":30.254,"lo1":-89.0895,"lo2":-89.0444,"dy":0.0017,"dx":0.0017,"nx":28,"ny":28,"refTime":"2025-06-21T09:00:00:Z","depth":"2","parameterNumber":2,"parameterNumberName":"U-component_of_CURRENTS"},"data":[0,0,0,0,0,0,0,0,0,0,0,0,0,0,0,0,0,0,0,0,0,0,0,0,0,0,0,0,0,0,0,0,0,0,0,0,0,0,0,0,0,0,0,0,0,0,0,0,0,0,0,0,0,0,0,0,0,0,0.1894,0.1896,0,0.2026,0.2027,0.2028,0.2062,0.2062,0.2061,0.206,0.2153,0.2156,0.2159,0,0,0,0,0,0,0,0,0,0,0,0,0,0.1684,0.1688,0.1894,0.1896,0.1898,0.2025,0.2027,0.2029,0.2062,0.2062,0.2061,0.206,0.2152,0.2156,0.216,0,0,0,0,0,0,0,0,0,0,0,0,0,0.179,0.1689,0.1894,0.1931,0.1936,0.2025,0.2027,0.2029,0.2063,0.2062,0.2061,0.206,0.2151,0.2156,0.216,0.2208,0,0,0.2174,0.2176,0,0,0,0,0,0,0,0,0.1784,0.1797,0.1924,0.1929,0.1934,0.2028,0.1987,0.2088,0.2063,0.2013,0.206,0.2059,0.211,0.2118,0.2143,0.2212,0.2216,0.2175,0.2177,0.2179,0.2181,0,0,0,0,0,0,0,0.1776,0.1792,0.1944,0.1926,0.1932,0.1946,0.1959,0.2007,0.2063,0.2017,0.202,0.2038,0.2112,0.2138,0.2145,0.2217,0.2174,0.2178,0.2181,0.2183,0.237,0.2372,0,0,0,0,0,0,0.1765,0.1785,0.194,0.1948,0.1857,0.1951,0.1966,0.1998,0.2063,0.2073,0.2039,0.2039,0.2131,0.2139,0.2148,0.2229,0.2179,0.2184,0.2186,0.2367,0.237,0.2372,0,0,0,0,0,0,0.176,0.1778,0.1935,0.187,0.1891,0.1955,0.1991,0.2001,0.2025,0.2081,0.2089,0.2052,0.213,0.2142,0.2206,0.2231,0.2186,0.219,0.2365,0.2368,0.2371,0.2376,0,0,0,0,0,0,0.1754,0.1776,0.1796,0.187,0.1894,0.1989,0.1992,0.2004,0.2038,0.204,0.2095,0.2103,0.213,0.2199,0.221,0.2237,0.2193,0.2362,0.2366,0.237,0.2373,0.2379,0.2384,0,0,0,0,0,0.1746,0.1777,0.1797,0.1815,0.192,0.199,0.2004,0.2044,0.204,0.2059,0.2103,0.2101,0.2233,0.2205,0.2217,0.2246,0.236,0.2365,0.237,0.2371,0.2378,0.2384,0,0,0,0,0,0,0.1696,0.1787,0.1808,0.1866,0.1923,0.1997,0.2022,0.2044,0.2095,0.2094,0.2132,0.2145,0.2215,0.2234,0.2202,0.2315,0.2296,0.2303,0.2292,0.2299,0.2305,0.2305,0.2197,0,0,0,0,0,0.1696,0.1744,0.1824,0.1869,0.1896,0.1956,0.1988,0.2018,0.2073,0.2093,0.2131,0.2182,0.2248,0.2273,0.2331,0.2387,0.2429,0.2416,0.2421,0.2425,0.2438,0.2525,0.2539,0.2389,0.2389,0.2389,0,0,0.1687,0.1745,0.1771,0.1861,0.1907,0.1959,0.1973,0.2025,0.2068,0.2097,0.2157,0.2206,0.2271,0.2344,0.2375,0.2358,0.2494,0.2432,0.2435,0.2445,0.2532,0.2546,0.2559,0.2392,0.2391,0.2391,0,0,0.1695,0.1746,0.1787,0.1839,0.1915,0.1959,0.1971,0.2044,0.2074,0.2143,0.2183,0.2249,0.2327,0.2389,0.2429,0.2501,0.2527,0.2513,0.2533,0.2617,0.263,0.2642,0.2721,0.274,0.2507,0.2507,0.2507,0,0.1677,0.1751,0.1806,0.186,0.1904,0.1955,0.2003,0.2051,0.2133,0.2172,0.2159,0.2315,0.2355,0.2471,0.2494,0.2513,0.2562,0.2495,0.2623,0.2635,0.2647,0.2726,0.2746,0.2507,0.2507,0.2507,0.2507,0,0.1721,0.1778,0.1805,0.1893,0.1943,0.1995,0.2066,0.2111,0.2143,0.2197,0.2303,0.2371,0.2463,0.2486,0.251,0.2623,0.2633,0.2623,0.2598,0.2662,0.2742,0.2763,0.2509,0.2508,0.2508,0.2508,0,0,0.1693,0.1811,0.1823,0.1868,0.1967,0.2013,0.2084,0.2176,0.2235,0.2298,0.2384,0.2488,0.2519,0.2569,0.2612,0.2676,0.2796,0.2679,0.2683,0.2744,0.299,0.2957,0.2977,0.2804,0.2808,0.2811,0.3014,0,0.1713,0.1804,0.1864,0.1948,0.2001,0.207,0.2136,0.222,0.2292,0.2384,0.2462,0.2563,0.2554,0.2607,0.2671,0.278,0.2852,0.2743,0.2931,0.2937,0.2888,0.3001,0.2575,0.2717,0.3034,0.3038,0.3041,0,0.1746,0.1805,0.1885,0.1991,0.2019,0.2073,0.2193,0.2263,0.2397,0.2456,0.2557,0.2621,0.2752,0.2719,0.292,0.2851,0.2924,0.2986,0.2995,0.2978,0.2944,0.2705,0.2744,0.3076,0.3073,0.3071,0.3068,0,0.1716,0.1825,0.1887,0.1925,0.2046,0.2092,0.2156,0.2284,0.236,0.2514,0.2584,0.273,0.2823,0.2932,0.3051,0.3001,0.3263,0.3209,0.3252,0.3251,0.2934,0.2899,0.3352,0.3352,0.3352,0.3351,0.335,0,0.1733,0.1786,0.1877,0.1917,0.1988,0.2078,0.2174,0.2263,0.2405,0.2506,0.2618,0.2727,0.288,0.303,0.311,0.3265,0.3318,0.3294,0.3315,0.2926,0.289,0.3226,0.3209,0.3359,0.3357,0.3355,0.3354,0,0.1714,0.1776,0.1848,0.1952,0.1983,0.2036,0.2167,0.2246,0.2379,0.2518,0.2571,0.2771,0.2978,0.313,0.3345,0.3351,0.3494,0.3528,0.3068,0.3032,0.3407,0.3388,0.3602,0.3603,0.3604,0.3604,0.3605,0,0.172,0.1754,0.1846,0.1882,0.1932,0.2016,0.2079,0.2219,0.231,0.2537,0.2605,0.2846,0.3001,0.331,0.3291,0.3433,0.3593,0.3216,0.3044,0.3442,0.344,0.342,0.34,0.2625,0.2617,0.2611,0.2606,0,0.1723,0.1749,0.1804,0.1863,0.1924,0.199,0.209,0.2151,0.2324,0.2445,0.2647,0.2791,0.2978,0.2938,0.3107,0.3124,0.3152,0.31,0.3647,0.2639,0.254,0.2532,0.2541,0.2551,0.2556,0.256,0.2563,0.2566,0.1717,0.174,0.1799,0.1853,0.1908,0.1962,0.1998,0.2107,0.2227,0.2362,0.2549,0.2615,0.2612,0.2623,0.2657,0.2658,0.2853,0.2777,0.2787,0.2805,0.2668,0.2576,0.2569,0.2574,0.2579,0.2583,0.2587,0,0.1711,0.1744,0.1789,0.1846,0.1872,0.1922,0.2005,0.2014,0.2104,0.2182,0.2314,0.2051,0.2047,0.2149,0.1975,0.2048,0.1922,0.2099,0.1869,0.1921,0.1968,0.1782,0.1452,0.145,0.1449,0.1448,0,0,0.1717,0.1747,0.1763,0.1794,0.1829,0.1848,0.1875,0.188,0.1889,0.1823,0.1758,0.1856,0.1926,0.158,0.1584,0.1522,0.1716,0.1468,0.2339,0.2106,0.2152,0.2291,0.2056,0,0,0,0,0]},{"header":{"parameterUnit":"m.s-1","parameterCategory":2,"la1":30.2991,"la2":30.254,"lo1":-89.0895,"lo2":-89.0444,"dy":0.0017,"dx":0.0017,"nx":28,"ny":28,"refTime":"2025-06-21T09:00:00:Z","depth":"2","parameterNumber":3,"parameterNumberName":"V-component_of_CURRENTS"},"data":[0,0,0,0,0,0,0,0,0,0,0,0,0,0,0,0,0,0,0,0,0,0,0,0,0,0,0,0,0,0,0,0,0,0,0,0,0,0,0,0,0,0,0,0,0,0,0,0,0,0,0,0,0,0,0,0,0,0,-0.0012,-0.0012,0,-0.0061,-0.0061,-0.0062,-0.0102,-0.0102,-0.0102,-0.0103,-0.0183,-0.0185,-0.0186,0,0,0,0,0,0,0,0,0,0,0,0,0,0.0013,0.0013,-0.0012,-0.0012,-0.0013,-0.006,-0.0061,-0.0062,-0.0102,-0.0102,-0.0102,-0.0103,-0.0182,-0.0184,-0.0187,0,0,0,0,0,0,0,0,0,0,0,0,0,-0.0013,0.0013,-0.0011,-0.0038,-0.004,-0.006,-0.0061,-0.0062,-0.0102,-0.0102,-0.0103,-0.0103,-0.0182,-0.0184,-0.0187,-0.0194,0,0,-0.0195,-0.0196,0,0,0,0,0,0,0,0,-0.0012,-0.0014,-0.0033,-0.0036,-0.0039,-0.0075,-0.0082,-0.0107,-0.0101,-0.0079,-0.0103,-0.0103,-0.0149,-0.0154,-0.0163,-0.0198,-0.0201,-0.0195,-0.0197,-0.0198,-0.0199,0,0,0,0,0,0,0,-0.001,-0.0013,-0.0032,-0.0034,-0.0037,-0.0058,-0.0063,-0.0087,-0.0112,-0.0081,-0.0084,-0.0088,-0.0151,-0.016,-0.0165,-0.0202,-0.0195,-0.0198,-0.02,-0.0201,-0.0263,-0.0263,0,0,0,0,0,0,0.0,-0.0011,-0.003,-0.0033,-0.0025,-0.0058,-0.0063,-0.0063,-0.0111,-0.0118,-0.0087,-0.0089,-0.0155,-0.0162,-0.0168,-0.0181,-0.0198,-0.0201,-0.0202,-0.0263,-0.0263,-0.0263,0,0,0,0,0,0,0.0001,-0.0001,-0.0028,-0.0023,-0.0028,-0.0058,-0.0058,-0.0064,-0.0072,-0.0115,-0.0123,-0.0089,-0.0156,-0.0164,-0.0185,-0.0184,-0.0202,-0.0205,-0.0263,-0.0263,-0.0263,-0.0204,0,0,0,0,0,0,0.0002,-0.0,0.0009,-0.0022,-0.0027,-0.0032,-0.0058,-0.0065,-0.0073,-0.0076,-0.0119,-0.0127,-0.0157,-0.0181,-0.0188,-0.0188,-0.0207,-0.0263,-0.0263,-0.0263,-0.0206,-0.0203,-0.0199,0,0,0,0,0,0.0003,0.0017,0.001,0.0008,-0.0016,-0.0031,-0.0035,-0.006,-0.0073,-0.007,-0.01,-0.0126,-0.0187,-0.0183,-0.0191,-0.0192,-0.0263,-0.0263,-0.0263,-0.0208,-0.0203,-0.0199,0,0,0,0,0,0,0.0039,0.0014,0.0005,0.0013,-0.0003,-0.0037,-0.0034,-0.0053,-0.0075,-0.0077,-0.0121,-0.0131,-0.015,-0.0179,-0.0173,-0.0212,-0.0231,-0.0233,-0.0186,-0.0182,-0.0179,-0.0163,-0.0209,0,0,0,0,0,0.0051,0.0052,0.0026,0.0034,0.0028,-0.0001,-0.0008,-0.0025,-0.0051,-0.0061,-0.0091,-0.0127,-0.0157,-0.0174,-0.0202,-0.0219,-0.0252,-0.0228,-0.0224,-0.0221,-0.0215,-0.0269,-0.0269,-0.0264,-0.0264,-0.0264,0,0,0.0068,0.0055,0.0057,0.0042,0.0027,0.0024,-0.0007,-0.0012,-0.0017,-0.0066,-0.0077,-0.0111,-0.0158,-0.0178,-0.019,-0.0202,-0.0238,-0.0221,-0.0218,-0.0214,-0.0269,-0.0269,-0.027,-0.0264,-0.0264,-0.0264,0,0,0.0099,0.0092,0.0099,0.0088,0.0071,0.0051,0.0052,0.0023,0.001,-0.0004,-0.0044,-0.0074,-0.0115,-0.0152,-0.0176,-0.0169,-0.0214,-0.0181,-0.0154,-0.0206,-0.0207,-0.0208,-0.0239,-0.0243,-0.0183,-0.0183,-0.0183,0,0.0122,0.0127,0.0102,0.0104,0.0103,0.0066,0.0076,0.0056,0.0024,0.0017,0.0002,-0.0064,-0.0104,-0.0139,-0.014,-0.0161,-0.0191,-0.0164,-0.02,-0.0202,-0.0204,-0.0236,-0.0242,-0.018,-0.018,-0.0181,-0.0181,0,0.0149,0.0157,0.0163,0.0152,0.0147,0.0152,0.0122,0.0113,0.0093,0.007,0.0042,-0.0012,-0.0052,-0.0075,-0.0107,-0.0142,-0.0158,-0.0185,-0.0208,-0.0201,-0.0235,-0.0242,-0.0176,-0.0177,-0.0178,-0.0179,0,0,0.019,0.0184,0.0186,0.0197,0.0176,0.0177,0.017,0.0155,0.0161,0.0116,0.0115,0.0046,0.0017,-0.0013,-0.0062,-0.0112,-0.0154,-0.0151,-0.0155,-0.0174,-0.0256,-0.0243,-0.0249,-0.0191,-0.0192,-0.0193,-0.0269,0,0.0222,0.0244,0.0227,0.0254,0.0267,0.0237,0.0236,0.0217,0.02,0.019,0.0121,0.0101,0.0039,0.0025,-0.0036,-0.0116,-0.0172,-0.013,-0.0266,-0.0269,-0.0253,-0.0257,-0.0296,-0.0366,-0.0276,-0.0277,-0.0278,0,0.0254,0.0265,0.0297,0.0312,0.0316,0.0322,0.0327,0.0324,0.0291,0.0278,0.0237,0.0188,0.0117,0.0063,-0.0081,-0.0051,-0.0149,-0.0221,-0.0227,-0.0239,-0.0269,-0.0362,-0.0382,-0.029,-0.0289,-0.0288,-0.0287,0,0.03,0.0318,0.035,0.0353,0.0357,0.0368,0.0369,0.0353,0.037,0.0338,0.0349,0.0252,0.0223,0.008,-0.006,-0.0078,-0.0213,-0.0259,-0.0344,-0.0343,-0.0416,-0.0419,-0.0376,-0.0376,-0.0376,-0.0376,-0.0376,0,0.0344,0.0373,0.0376,0.0395,0.0438,0.0421,0.0464,0.0454,0.0457,0.049,0.0401,0.0416,0.0224,0.0129,-0.0029,-0.0187,-0.0194,-0.0335,-0.0365,-0.0394,-0.0394,-0.0362,-0.036,-0.0379,-0.0378,-0.0378,-0.0377,0,0.04,0.0398,0.044,0.0453,0.0463,0.0497,0.0536,0.0568,0.056,0.0603,0.0597,0.0538,0.043,0.0241,0.0033,-0.0122,-0.0292,-0.0353,-0.0356,-0.0385,-0.04,-0.0393,-0.0465,-0.0466,-0.0466,-0.0466,-0.0466,0,0.0436,0.0458,0.0491,0.0523,0.0537,0.0581,0.0613,0.062,0.0668,0.069,0.0724,0.0648,0.0631,0.0352,0.0039,-0.0233,-0.0251,-0.0438,-0.0489,-0.0388,-0.0411,-0.0404,-0.0397,-0.0566,-0.0567,-0.0568,-0.0569,0,0.0503,0.0507,0.0539,0.0597,0.0642,0.0702,0.0756,0.0811,0.0828,0.0885,0.096,0.0955,0.068,0.0394,0.0016,-0.0174,-0.0398,-0.046,-0.0377,-0.0517,-0.0485,-0.0505,-0.0496,-0.0575,-0.0575,-0.0574,-0.0574,-0.0574,0.0549,0.0584,0.0613,0.0673,0.0733,0.0818,0.0884,0.0966,0.107,0.1165,0.1142,0.1084,0.0689,0.0182,-0.0102,-0.0422,-0.0415,-0.0565,-0.0563,-0.0561,-0.0539,-0.0506,-0.0596,-0.0596,-0.0595,-0.0595,-0.0594,0,0.0586,0.0623,0.0687,0.0757,0.0834,0.0855,0.0974,0.1057,0.1209,0.1243,0.1322,0.0879,0.0564,0.0176,-0.0331,-0.0603,-0.0633,-0.0656,-0.0671,-0.0664,-0.0658,-0.0641,-0.0726,-0.0726,-0.0727,-0.0727,0,0,0.0607,0.0658,0.0686,0.0815,0.0885,0.1001,0.1079,0.1225,0.1264,0.1301,0.1197,0.1077,0.0533,0.0123,-0.0242,-0.0474,-0.0486,-0.0505,-0.0386,-0.0356,-0.0345,-0.0608,-0.0573,0,0,0,0,0]}],[{"header":{"parameterUnit":"m.s-1","parameterCategory":2,"la1":30.2991,"la2":30.254,"lo1":-89.0895,"lo2":-89.0444,"dy":0.0017,"dx":0.0017,"nx":28,"ny":28,"refTime":"2025-06-21T09:00:00:Z","depth":"4","parameterNumber":2,"parameterNumberName":"U-component_of_CURRENTS"},"data":[0,0,0,0,0,0,0,0,0,0,0,0,0,0,0,0,0,0,0,0,0,0,0,0,0,0,0,0,0,0,0,0,0,0,0,0,0,0,0,0,0,0,0,0,0,0,0,0,0,0,0,0,0,0,0,0,0,0,0.0755,0.0756,0,0.079,0.079,0.0791,0.0862,0.0863,0.0864,0.0865,0.0914,0.0915,0.0915,0,0,0,0,0,0,0,0,0,0,0,0,0,0.0714,0.0715,0.0755,0.0756,0.0756,0.079,0.079,0.0791,0.0861,0.0863,0.0864,0.0866,0.0914,0.0915,0.0915,0,0,0,0,0,0,0,0,0,0,0,0,0,0.0741,0.0715,0.0755,0.0793,0.0796,0.0789,0.079,0.0791,0.0861,0.0863,0.0865,0.0866,0.0914,0.0915,0.0915,0.0883,0,0,0.0916,0.0916,0,0,0,0,0,0,0,0,0.074,0.0743,0.0787,0.079,0.0794,0.0821,0.0794,0.0822,0.0861,0.084,0.0865,0.0867,0.0881,0.0884,0.0891,0.0885,0.0887,0.0916,0.0916,0.0917,0.0917,0,0,0,0,0,0,0,0.0738,0.0742,0.0772,0.0787,0.0791,0.0795,0.0802,0.0799,0.0853,0.0842,0.0846,0.0845,0.0884,0.089,0.0893,0.0888,0.0916,0.0917,0.0917,0.0917,0.0958,0.0959,0,0,0,0,0,0,0.0728,0.074,0.0771,0.0773,0.0767,0.0794,0.0802,0.0813,0.0853,0.086,0.0843,0.0848,0.0889,0.0892,0.0895,0.0976,0.0917,0.0917,0.0917,0.0957,0.0958,0.0959,0,0,0,0,0,0,0.0727,0.0731,0.0769,0.0754,0.0759,0.0793,0.0805,0.0812,0.0842,0.0853,0.0861,0.0867,0.0891,0.0894,0.0923,0.0974,0.0917,0.0917,0.0956,0.0958,0.0959,0.1063,0,0,0,0,0,0,0.0726,0.0731,0.0748,0.0754,0.076,0.0789,0.0803,0.0812,0.0835,0.0843,0.0875,0.0881,0.0892,0.0922,0.0923,0.0974,0.0918,0.0955,0.0957,0.0958,0.1059,0.1068,0.1076,0,0,0,0,0,0.0725,0.0735,0.0749,0.0754,0.0779,0.079,0.0794,0.0825,0.0835,0.0856,0.0879,0.0881,0.0934,0.0923,0.0924,0.0976,0.0954,0.0956,0.0958,0.1055,0.1066,0.1076,0,0,0,0,0,0,0.0724,0.0743,0.0759,0.0776,0.0794,0.0801,0.082,0.0829,0.0862,0.0877,0.0886,0.0893,0.0937,0.0928,0.0916,0.0989,0.0946,0.0948,0.1019,0.103,0.1038,0.1042,0.0918,0,0,0,0,0,0.073,0.075,0.0763,0.078,0.0791,0.0807,0.0817,0.0838,0.0856,0.0874,0.0898,0.0919,0.0938,0.0963,0.0971,0.1007,0.0979,0.1039,0.1048,0.1055,0.1057,0.1045,0.1054,0.0966,0.0966,0.0966,0,0,0.0735,0.0745,0.0759,0.0782,0.0799,0.0815,0.082,0.0845,0.0872,0.087,0.0926,0.0943,0.0948,0.1,0.102,0.1008,0.1068,0.1058,0.1065,0.1062,0.1048,0.1057,0.1065,0.0967,0.0967,0.0967,0,0,0.0741,0.0766,0.0785,0.0801,0.0828,0.0835,0.0843,0.0871,0.0907,0.0944,0.0959,0.1002,0.103,0.1061,0.1072,0.1122,0.1103,0.1136,0.1203,0.1193,0.12,0.1206,0.1196,0.12,0.1155,0.1155,0.1156,0,0.0747,0.0772,0.0791,0.081,0.0825,0.0843,0.0864,0.0893,0.0932,0.0961,0.0977,0.1032,0.1056,0.1106,0.1157,0.1145,0.1135,0.1171,0.1206,0.1211,0.1215,0.1203,0.1206,0.1161,0.116,0.1159,0.1159,0,0.076,0.0792,0.0802,0.0835,0.0855,0.0875,0.0908,0.0947,0.0983,0.1011,0.1075,0.1109,0.1148,0.1175,0.1198,0.1256,0.1238,0.1208,0.1184,0.1231,0.1215,0.1216,0.1168,0.1166,0.1165,0.1163,0,0,0.074,0.0802,0.0808,0.0838,0.0873,0.0888,0.0936,0.0981,0.1017,0.1076,0.1125,0.1201,0.1233,0.1247,0.1279,0.1303,0.1358,0.1301,0.1298,0.13,0.1347,0.1308,0.1305,0.1345,0.1346,0.1346,0.1328,0,0.0747,0.0791,0.0818,0.0863,0.089,0.0927,0.0964,0.1013,0.1062,0.1118,0.1168,0.1231,0.1253,0.1308,0.1332,0.1349,0.1366,0.1366,0.1293,0.129,0.1257,0.1307,0.1348,0.1329,0.133,0.133,0.133,0,0.0745,0.0779,0.0824,0.0893,0.0908,0.0937,0.1002,0.1049,0.1121,0.1167,0.1228,0.1267,0.1347,0.1346,0.1377,0.1383,0.1384,0.138,0.1377,0.1303,0.1255,0.1267,0.1332,0.1332,0.1332,0.1332,0.1331,0,0.0714,0.0784,0.0822,0.0842,0.0911,0.0952,0.1003,0.1071,0.112,0.1221,0.1259,0.1319,0.1376,0.1374,0.1409,0.1405,0.1411,0.1381,0.1327,0.1324,0.1316,0.131,0.1377,0.1377,0.1377,0.1377,0.1377,0,0.0696,0.0731,0.0819,0.0838,0.0893,0.0959,0.1025,0.1084,0.1166,0.1215,0.1301,0.1328,0.1393,0.1411,0.141,0.1384,0.1402,0.1346,0.132,0.1362,0.136,0.1318,0.1312,0.1376,0.1376,0.1376,0.1377,0,0.0649,0.0703,0.0752,0.0843,0.0879,0.0927,0.1042,0.1078,0.1176,0.124,0.1286,0.136,0.1388,0.1414,0.1421,0.1387,0.1361,0.134,0.1399,0.1375,0.1277,0.1276,0.1268,0.1266,0.1265,0.1264,0.1263,0,0.0625,0.0646,0.0744,0.0776,0.0823,0.0912,0.0955,0.1072,0.1112,0.1232,0.1242,0.1325,0.1362,0.1318,0.1357,0.1338,0.1325,0.1313,0.1292,0.1292,0.1268,0.1269,0.1269,0.1261,0.1261,0.1261,0.1261,0,0.0574,0.0612,0.065,0.0722,0.0778,0.0835,0.0924,0.0944,0.1066,0.116,0.1191,0.123,0.1252,0.1266,0.1285,0.1259,0.1325,0.13,0.1301,0.1282,0.1284,0.1261,0.1263,0.1256,0.1257,0.1257,0.1258,0,0.0531,0.0543,0.06,0.0658,0.0725,0.0753,0.0803,0.086,0.092,0.1064,0.1063,0.1139,0.1223,0.1223,0.1219,0.1225,0.1202,0.1172,0.118,0.1185,0.1174,0.1166,0.1087,0,0,0,0,0,0.0494,0.0503,0.0539,0.0592,0.0655,0.0695,0.0774,0.0819,0.0935,0.0932,0.1009,0.103,0.1074,0.1102,0.1089,0.1172,0.1195,0.1155,0.1161,0.1233,0.1238,0.1236,0,0,0,0,0,0,0.0466,0.0494,0.051,0.0534,0.0559,0.0608,0.0652,0.0714,0.0726,0.085,0.0861,0.0985,0.1014,0.1064,0.1071,0.1086,0.1076,0.1219,0.1217,0.123,0.1235,0.1239,0.1239,0,0,0,0,0]},{"header":{"parameterUnit":"m.s-1","parameterCategory":2,"la1":30.2991,"la2":30.254,"lo1":-89.0895,"lo2":-89.0444,"dy":0.0017,"dx":0.0017,"nx":28,"ny":28,"refTime":"2025-06-21T09:00:00:Z","depth":"4","parameterNumber":3,"parameterNumberName":"V-component_of_CURRENTS"},"data":[0,0,0,0,0,0,0,0,0,0,0,0,0,0,0,0,0,0,0,0,0,0,0,0,0,0,0,0,0,0,0,0,0,0,0,0,0,0,0,0,0,0,0,0,0,0,0,0,0,0,0,0,0,0,0,0,0,0,-0.0207,-0.0207,0,-0.025,-0.0251,-0.0252,-0.0303,-0.0304,-0.0304,-0.0305,-0.0383,-0.0385,-0.0387,0,0,0,0,0,0,0,0,0,0,0,0,0,-0.0184,-0.0184,-0.0207,-0.0207,-0.0207,-0.025,-0.0251,-0.0252,-0.0303,-0.0304,-0.0304,-0.0305,-0.0383,-0.0385,-0.0387,0,0,0,0,0,0,0,0,0,0,0,0,0,-0.0211,-0.0184,-0.0207,-0.0235,-0.0238,-0.025,-0.0251,-0.0252,-0.0303,-0.0304,-0.0304,-0.0305,-0.0382,-0.0385,-0.0387,-0.0388,0,0,-0.0395,-0.0396,0,0,0,0,0,0,0,0,-0.0209,-0.0212,-0.0231,-0.0233,-0.0236,-0.0269,-0.0272,-0.0298,-0.0303,-0.0282,-0.0305,-0.0305,-0.0346,-0.0351,-0.0362,-0.0392,-0.0395,-0.0395,-0.0396,-0.0397,-0.0398,0,0,0,0,0,0,0,-0.0207,-0.021,-0.0227,-0.0231,-0.0234,-0.0251,-0.0256,-0.0277,-0.0313,-0.0284,-0.0287,-0.0286,-0.0348,-0.036,-0.0364,-0.0397,-0.0395,-0.0397,-0.0399,-0.04,-0.0498,-0.0499,0,0,0,0,0,0,-0.0193,-0.0208,-0.0226,-0.0228,-0.022,-0.0251,-0.0256,-0.0261,-0.0312,-0.0319,-0.0285,-0.0288,-0.0355,-0.0361,-0.0367,-0.043,-0.0397,-0.04,-0.0401,-0.0497,-0.0498,-0.0499,0,0,0,0,0,0,-0.0192,-0.0194,-0.0224,-0.0216,-0.0221,-0.025,-0.0255,-0.0261,-0.028,-0.0312,-0.0321,-0.0298,-0.0356,-0.0364,-0.04,-0.0431,-0.0401,-0.0403,-0.0495,-0.0497,-0.0499,-0.0517,0,0,0,0,0,0,-0.0192,-0.0194,-0.0201,-0.0215,-0.0221,-0.0237,-0.0254,-0.0261,-0.0276,-0.028,-0.0325,-0.0333,-0.0357,-0.0396,-0.0403,-0.0434,-0.0405,-0.0494,-0.0496,-0.0498,-0.0515,-0.052,-0.0523,0,0,0,0,0,-0.0191,-0.0192,-0.0202,-0.0204,-0.0227,-0.0237,-0.0242,-0.0267,-0.0275,-0.0286,-0.032,-0.0332,-0.0415,-0.0399,-0.0406,-0.0439,-0.0493,-0.0496,-0.0498,-0.0514,-0.0519,-0.0523,0,0,0,0,0,0,-0.0185,-0.0197,-0.0208,-0.0213,-0.0227,-0.0245,-0.0255,-0.0266,-0.03,-0.0309,-0.0339,-0.0349,-0.0397,-0.0409,-0.0391,-0.0474,-0.0458,-0.0463,-0.0468,-0.0473,-0.0477,-0.0463,-0.0407,0,0,0,0,0,-0.0185,-0.0192,-0.0205,-0.021,-0.0216,-0.0236,-0.0245,-0.0261,-0.0284,-0.03,-0.0331,-0.037,-0.0411,-0.0433,-0.0467,-0.0503,-0.0492,-0.0531,-0.0535,-0.0538,-0.0532,-0.0535,-0.0538,-0.0508,-0.0508,-0.0507,0,0,-0.0186,-0.0191,-0.0197,-0.021,-0.0224,-0.0225,-0.0245,-0.0259,-0.0265,-0.0303,-0.0333,-0.0382,-0.0423,-0.0474,-0.0496,-0.0489,-0.0542,-0.0541,-0.0544,-0.0536,-0.0538,-0.0541,-0.0543,-0.0509,-0.0509,-0.0509,0,0,-0.0178,-0.0194,-0.0195,-0.0204,-0.0218,-0.0226,-0.0227,-0.0252,-0.0274,-0.0303,-0.0344,-0.0402,-0.045,-0.0498,-0.0524,-0.0563,-0.0561,-0.0587,-0.0598,-0.0601,-0.0603,-0.0605,-0.0593,-0.0593,-0.059,-0.059,-0.059,0,-0.0178,-0.0178,-0.0198,-0.0196,-0.0197,-0.022,-0.0216,-0.0237,-0.0273,-0.0292,-0.0312,-0.0407,-0.0458,-0.0516,-0.0559,-0.0571,-0.0568,-0.0577,-0.0604,-0.0606,-0.0607,-0.0594,-0.0595,-0.0591,-0.0591,-0.0591,-0.0591,0,-0.0166,-0.0169,-0.0169,-0.0172,-0.0179,-0.018,-0.02,-0.0222,-0.0248,-0.0272,-0.0336,-0.041,-0.0465,-0.051,-0.0558,-0.0611,-0.0604,-0.0605,-0.0587,-0.0611,-0.0597,-0.0596,-0.0593,-0.0593,-0.0592,-0.0592,0,0,-0.0152,-0.0159,-0.0159,-0.0156,-0.0166,-0.0167,-0.0179,-0.0197,-0.0206,-0.0266,-0.0288,-0.0404,-0.0453,-0.0488,-0.0558,-0.0594,-0.063,-0.0622,-0.0622,-0.06,-0.063,-0.0622,-0.0621,-0.064,-0.064,-0.064,-0.0615,0,-0.0135,-0.0122,-0.0131,-0.0119,-0.0113,-0.0135,-0.0139,-0.0164,-0.0197,-0.0229,-0.0311,-0.0365,-0.0438,-0.0491,-0.0536,-0.0615,-0.0631,-0.0636,-0.0618,-0.0617,-0.06,-0.0621,-0.0641,-0.0614,-0.0614,-0.0614,-0.0614,0,-0.0119,-0.0109,-0.0092,-0.009,-0.009,-0.0086,-0.0096,-0.0109,-0.0156,-0.0189,-0.025,-0.031,-0.0405,-0.045,-0.0543,-0.0546,-0.0591,-0.0634,-0.0633,-0.0616,-0.061,-0.0588,-0.0614,-0.0614,-0.0614,-0.0614,-0.0614,0,-0.0093,-0.0084,-0.0066,-0.0064,-0.0062,-0.0064,-0.0071,-0.0101,-0.0107,-0.0171,-0.0183,-0.0276,-0.0328,-0.0398,-0.0514,-0.0532,-0.0588,-0.0604,-0.0616,-0.0615,-0.0618,-0.0617,-0.063,-0.063,-0.0631,-0.0631,-0.0631,0,-0.0068,-0.0058,-0.0053,-0.0043,-0.0022,-0.004,-0.0031,-0.0055,-0.0079,-0.0075,-0.0167,-0.0184,-0.0323,-0.038,-0.0475,-0.0546,-0.0541,-0.0616,-0.0612,-0.0628,-0.0628,-0.0618,-0.0617,-0.063,-0.063,-0.063,-0.063,0,-0.0051,-0.0046,-0.0025,-0.0015,-0.001,-0.0002,0.0006,0.0012,-0.0018,-0.0014,-0.0034,-0.0117,-0.02,-0.0308,-0.0423,-0.0483,-0.0559,-0.0574,-0.0569,-0.0565,-0.0588,-0.0589,-0.058,-0.0579,-0.0579,-0.0579,-0.0578,0,-0.0041,-0.0027,-0.0001,0.002,0.0024,0.0039,0.0056,0.0038,0.0056,0.0035,0.0047,-0.0035,-0.01,-0.0225,-0.0366,-0.0497,-0.0524,-0.0546,-0.0597,-0.0588,-0.0585,-0.0586,-0.0587,-0.0578,-0.0578,-0.0578,-0.0578,0,-0.0019,-0.0011,0.001,0.0054,0.008,0.0109,0.0132,0.0156,0.0149,0.0133,0.0124,0.0031,-0.0051,-0.0199,-0.0301,-0.0404,-0.0535,-0.0544,-0.0546,-0.0593,-0.0586,-0.0583,-0.0584,-0.0576,-0.0577,-0.0577,-0.0577,0,-0.0003,0.0016,0.0049,0.0088,0.0125,0.0167,0.0174,0.0204,0.0217,0.0208,0.0205,0.0091,0.0016,-0.0148,-0.0246,-0.035,-0.0386,-0.042,-0.0429,-0.0432,-0.042,-0.0392,-0.0314,0,0,0,0,0,0.0018,0.0043,0.0081,0.0128,0.0166,0.0183,0.0227,0.0235,0.0247,0.0261,0.0238,0.0161,-0.0004,-0.0089,-0.0187,-0.0262,-0.042,-0.0382,-0.0466,-0.057,-0.0571,-0.0586,0,0,0,0,0,0,0.0033,0.007,0.0087,0.0155,0.0188,0.0231,0.0254,0.0261,0.0274,0.0269,0.0186,0.014,-0.0023,0.0057,-0.0188,-0.0224,-0.029,-0.0464,-0.0466,-0.0569,-0.057,-0.0571,-0.0587,0,0,0,0,0]}]]